#timestamp,LO_Frequency,Hit,StdDev 
1459825215.7,286047001.3,P
1459825235.6,286046999.9,N
1459825255.4,286046999.3,N
1459825275.2,286047000.8,N
1459825295.1,286046998.7,N
1459825296.0,286046998.7,N
1459825315.8,286046996.6,N
1459825335.6,286047001.2,N
1459825355.5,286046999.2,N
1459825375.3,286046996.5,N
1459825395.1,286046998.9,N
1459825415.9,286046999.3,N
1459825435.7,286046999.2,N
1459825455.5,286046998.8,N
1459825475.3,286046996.9,N
1459825495.2,286046995.1,N
1459825515.0,286046999.0,N
1459825515.9,286046999.0,N
1459825535.7,286046998.9,N
1459825555.6,286046999.2,N
1459825575.4,286046999.4,N
1459825595.2,286046997.1,N
1459825615.1,286046997.9,N
1459825616.0,286046997.9,N
1459825635.8,286046995.4,N
1459825655.6,286046995.4,N
1459825675.5,286046997.9,N
1459825695.3,286046995.4,N
1459825715.1,286046997.2,N
1459825735.9,286046999.1,N
1459825755.7,286046997.8,N
1459825775.5,286046996.7,N
1459825795.3,286046998.6,N
1459825815.2,286046998.5,N
1459825835.0,286047001.2,N
1459825835.9,286047001.2,N
1459825855.7,286047001.0,N
1459825875.6,286046998.5,N
1459825895.4,286047002.3,N
1459825915.2,286047002.3,N
1459825935.1,286047001.2,N
1459825936.0,286047001.2,N
1459825955.8,286047001.5,N
1459825975.6,286047002.6,N
1459825995.5,286047001.5,N
1459826015.3,286047003.4,N
1459826035.1,286047005.7,N
1459826055.9,286047005.7,N
1459826075.7,286047003.7,N
1459826095.5,286047004.0,N
1459826115.4,286047005.9,N
1459826135.2,286047004.1,N
1459826155.0,286047000.0,N
1459826155.9,286047000.0,N
1459826175.7,286046999.0,N
1459826195.6,286046998.2,N
1459826215.4,286046996.7,N
1459826235.2,286046995.3,N
1459826255.1,286046998.0,N
1459826256.0,286046998.0,N
1459826275.8,286046996.0,N
1459826295.6,286046995.0,N
1459826315.5,286046995.5,N
1459826335.3,286046997.7,N
1459826355.1,286046997.8,N
1459826375.9,286046998.0,N
1459826395.7,286046996.9,N
1459826415.5,286046999.6,N
1459826435.4,286046999.4,N
1459826455.2,286046997.2,N
1459826475.0,286046997.2,N
1459826475.9,286046997.2,N
1459826495.8,286047000.4,N
1459826515.6,286046999.3,N
1459826535.4,286047000.8,N
1459826555.3,286047001.5,N
1459826575.1,286047002.4,N
1459826576.0,286047002.4,N
1459826595.8,286047001.6,N
1459826615.6,286047001.8,N
1459826635.5,286047002.6,N
1459826655.3,286047001.2,N
1459826675.1,286046999.5,N
1459826695.9,286046999.3,N
1459826715.7,286046999.6,N
1459826735.5,286046999.6,N
1459826755.4,286046997.4,N
1459826775.2,286046996.4,N
1459826795.0,286046997.9,N
1459826795.9,286046997.9,N
1459826815.8,286046995.5,N
1459826835.6,286046996.1,N
1459826855.4,286046996.7,N
1459826875.3,286046998.5,N
1459826895.1,286046998.4,N
1459826896.0,286046998.4,N
1459826915.8,286046998.6,N
1459826935.7,286046996.6,N
1459826955.5,286046997.5,N
1459826975.3,286046996.3,N
1459826995.2,286046993.7,Y
1459827015.9,286046997.9,P
1459827035.7,286046997.0,P
1459827055.6,286046997.5,P
1459827075.4,286046995.0,Y
1459827095.2,286046999.5,P
1459827115.1,286047000.0,N
1459827116.0,286047000.0,N
1459827135.8,286046999.9,N
1459827155.6,286047000.6,N
1459827175.5,286047002.8,Y
1459827195.3,286047000.0,P
1459827215.1,286047000.9,P
1459827235.9,286046996.9,P
1459827255.7,286047000.5,N
1459827275.5,286047002.1,N
1459827295.4,286047004.4,N
1459827315.2,286047001.6,N
1459827335.0,286047003.3,N
1459827335.9,286047003.3,N
1459827355.8,286047003.2,N
1459827375.6,286047003.3,N
1459827395.4,286047001.5,N
1459827415.2,286047003.6,N
1459827435.1,286047003.6,N
1459827436.0,286047003.6,N
1459827455.8,286047003.7,N
1459827475.7,286047006.0,Y
1459827495.5,286047000.5,P
1459827515.3,286047000.6,N
1459827535.1,286046999.9,N
1459827555.9,286047000.4,N
1459827575.7,286046999.9,N
1459827595.5,286047001.0,N
1459827615.4,286047002.3,Y
1459827635.2,286047002.4,P
1459827655.0,286047000.0,N
1459827655.9,286047000.0,N
1459827675.8,286047000.9,N
1459827695.6,286047000.2,N
1459827715.4,286046998.3,N
1459827735.3,286046998.4,N
1459827755.1,286047000.6,N
1459827756.0,286047000.6,N
1459827775.8,286046998.2,N
1459827795.7,286046998.8,N
1459827815.5,286046996.7,N
1459827835.3,286046998.0,N
1459827855.2,286046995.5,Y
1459827875.9,286046996.1,P
1459827895.7,286046995.6,N
1459827915.6,286046994.1,P
1459827935.4,286046996.2,N
1459827955.2,286046991.8,Y
1459827975.1,286046996.5,P
1459827976.0,286046996.5,P
1459827995.8,286046996.7,P
1459828015.6,286046997.0,Y
1459828035.5,286047004.3,P
1459828055.3,286047004.0,N
1459828075.1,286047001.3,N
1459828095.9,286047004.1,N
1459828115.7,286047003.2,N
1459828135.5,286047003.8,N
1459828155.4,286047002.2,N
1459828175.2,286047002.4,N
1459828195.0,286047000.6,N
1459828195.9,286047000.6,N
1459828215.7,286047002.2,N
1459828235.6,286047001.3,N
1459828255.4,286047000.0,N
1459828275.2,286047000.5,N
1459828295.1,286047002.5,N
1459828296.0,286047002.5,N
1459828315.8,286047002.0,N
1459828335.6,286047000.3,N
1459828355.5,286047002.2,N
1459828375.3,286047001.9,N
1459828395.1,286047000.6,N
1459828415.9,286046999.2,N
1459828435.7,286046998.9,N
1459828455.5,286046996.9,N
1459828475.4,286046996.7,N
1459828495.2,286046999.0,N
1459828515.0,286046998.4,N
1459828515.9,286046998.4,N
1459828535.8,286047000.3,N
1459828555.6,286046998.2,N
1459828575.4,286046997.1,N
1459828595.2,286046997.6,N
1459828615.1,286046997.2,N
1459828616.0,286046997.2,N
1459828635.8,286046995.7,N
1459828655.6,286046997.7,N
1459828675.5,286046996.9,N
1459828695.3,286046999.3,N
1459828715.1,286046998.2,N
1459828735.9,286047000.8,N
1459828755.7,286046998.7,N
1459828775.5,286046999.2,N
1459828795.4,286046997.3,N
